Weather History for KHLC - November, 2012

Change the Weather History Date:

Wednesday, November 7, 2012

  Actual Average Record
Temperature  
Mean Temperature 48 °F 45 °F  
Max Temperature 69 °F 58 °F 83 °F (2010)
Min Temperature 26 °F 31 °F 8 °F (1991)
Degree Days  
Heating Degree Days 18    
Moisture  
Dew Point 26 °F    
Average Humidity 48    
Maximum Humidity 81    
Minimum Humidity 23    
Precipitation  
Precipitation 0.00 in 0.03 in 0.46 in (1998)
Month to date precipitation 0.00 0.31  
Year to date precipitation 9.74 21.59  
Sea Level Pressure  
Sea Level Pressure 30.08 in    
Wind  
Wind Speed 5 mph (SSE)    
Max Wind Speed 17 mph    
Max Gust Speed 23 mph    
Visibility 10 miles    
Events      
T = Trace of Precipitation, MM = Missing Value Source: NWS Daily Summary

Daily Weather History Graph

Daily Weather History Graph

Search for Another Location

Airport or City:

Trip Planner

Search our weather history database for the weather conditions in past years. The results will help you decide how hot, cold, wet, or windy it might be!

Date:

Astronomy

Nov. 07, 2012 Rise Set
Actual Time 7:14 AM CST 5:30 PM CST
Civil Twilight 6:46 AM CST 5:59 PM CST
Nautical Twilight 6:14 AM CST 6:31 PM CST
Astronomical Twilight 5:42 AM CST 7:02 PM CST
Moon 12:12 AM CST (11/7) 1:39 PM CST (11/7)
Length of Visible Light 11h 12m
Length of Day
10h 16m
Last Quarter, 43% of the Moon is Illuminated
Nov 7
Last Quarter
Nov 13
New
Nov 20
First Quarter
Nov 28
Full
Dec 6
Last Quarter

Hourly Weather History & Observations

Time (CST) Temp. Windchill Dew Point Humidity Pressure Visibility Wind Dir Wind Speed Gust Speed Precip Events Conditions
12:53 AM 33.1 °F - 24.1 °F 70% 30.19 in 10.0 mi Calm Calm - N/A   Clear
1:53 AM 30.9 °F 27.5 °F 23.0 °F 72% 30.19 in 10.0 mi NW 3.5 mph - N/A   Clear
2:53 AM 30.0 °F 26.5 °F 23.0 °F 75% 30.19 in 10.0 mi West 3.5 mph - N/A   Clear
3:53 AM 32.0 °F - 24.1 °F 73% 30.18 in 10.0 mi Calm Calm - N/A   Clear
4:53 AM 27.0 °F - 21.9 °F 81% 30.18 in 10.0 mi Calm Calm - N/A   Clear
5:53 AM 27.0 °F - 21.9 °F 81% 30.20 in 10.0 mi Calm Calm - N/A   Clear
6:53 AM 28.9 °F - 21.9 °F 75% 30.20 in 10.0 mi Calm Calm - N/A   Clear
7:53 AM 32.0 °F - 25.0 °F 75% 30.21 in 10.0 mi Calm Calm - N/A   Clear
8:53 AM 42.1 °F - 28.0 °F 58% 30.20 in 10.0 mi Calm Calm - N/A   Clear
9:53 AM 54.0 °F - 25.0 °F 33% 30.16 in 10.0 mi SSE 12.7 mph - N/A   Clear
10:53 AM 57.0 °F - 23.0 °F 27% 30.13 in 10.0 mi SE 15.0 mph - N/A   Clear
11:53 AM 61.0 °F - 24.1 °F 24% 30.10 in 10.0 mi SSE 15.0 mph - N/A   Clear
12:53 PM 64.0 °F - 26.1 °F 24% 30.05 in 10.0 mi SSE 13.8 mph 20.7 mph N/A   Clear
1:53 PM 66.9 °F - 28.0 °F 23% 30.01 in 10.0 mi SSE 17.3 mph 23.0 mph N/A   Clear
2:53 PM 68.0 °F - 28.9 °F 23% 29.99 in 10.0 mi SSE 15.0 mph 20.7 mph N/A   Clear
3:53 PM 68.0 °F - 30.0 °F 24% 29.97 in 10.0 mi South 15.0 mph - N/A   Clear
4:53 PM 66.0 °F - 30.0 °F 26% 29.97 in 10.0 mi SSE 12.7 mph - N/A   Clear
5:53 PM 57.0 °F - 28.9 °F 34% 29.98 in 10.0 mi SE 9.2 mph - N/A   Clear
6:53 PM 55.0 °F - 28.0 °F 35% 29.98 in 10.0 mi SE 10.4 mph - N/A   Clear
7:53 PM 53.1 °F - 27.0 °F 37% 29.98 in 10.0 mi SE 5.8 mph - N/A   Clear
8:53 PM 53.1 °F - 27.0 °F 37% 29.96 in 10.0 mi SSE 9.2 mph - N/A   Clear
9:53 PM 46.9 °F - 27.0 °F 46% 29.96 in 10.0 mi ESE 5.8 mph - N/A   Clear
10:53 PM 46.0 °F 41.9 °F 26.1 °F 46% 29.94 in 10.0 mi SE 8.1 mph - N/A   Clear
11:53 PM 45.0 °F 41.2 °F 27.0 °F 49% 29.91 in 10.0 mi SE 6.9 mph - N/A   Clear